Back to catalog

STARLINK-11644

AliveCommunicationsVLEO
NORAD 63672·PAYLOAD·🇺🇸 United States

Launched Apr 28, 2025 from Cape Canaveral Space Force Station

Loading…

Next Passes (next 24 hours)

TLE

FreshSource: CelesTrak SupGP

Epoch: Sep 14, 2026, 20:49 UTC

1 63672C 25085J   26257.86784722  .00060809  00000+0  47261-3 0  2572
2 63672  43.0006 218.1250 0001686 256.8448 133.5624 15.70793030    16

Track STARLINK-11644 in real time with AllMySat

Download on the App Store